{"data":{"norad_id":69803,"epoch":"2026-09-20T01:13:29.500032Z","epoch_age_seconds":60460,"freshness":"FRESH","line1":"1 69803U 26153D   26263.05103588  .00000121  00000+0  66419-4 0  9995","line2":"2 69803  88.9978 351.5025 0005673 341.2955  18.8017 14.05218033 10999","mean_motion":14.05218033,"eccentricity":0.0005673,"inclination_deg":88.9978,"raan_deg":351.5025,"arg_perigee_deg":341.2955,"mean_anomaly_deg":18.8017,"bstar":6.6419e-5,"rev_number":1099,"period_min":102.47520072922,"perigee_km":871.66679516201,"apogee_km":879.89709159517,"semimajor_km":7253.9189433786,"source":"CELESTRAK","updated_at":"2026-09-20T09:00:25.119588Z"}}